[[{"header":{"parameterUnit":"m.s-1","parameterCategory":1,"la1":30.2992,"la2":30.254,"lo1":-89.0895,"lo2":-89.0443,"dy":0.0025,"dx":0.0025,"nx":19,"ny":19,"refTime":"2026-04-04T09:00:00:Z","depth":0,"parameterNumber":2,"parameterNumberName":"U-component_of_WINDS"},"data":[0,0,0,-3.6153,-3.6156,-3.6311,-3.6312,-3.6515,-3.6517,0,0,0,0,0,0,0,0,0,0,0,-3.6109,-3.6111,-3.6153,-3.6156,-3.6311,-3.6312,-3.6515,-3.6517,0,0,0,0,0,0,0,0,0,0,0,-3.6108,-3.611,-3.6112,-3.6157,-3.6311,-3.6312,-3.6514,-3.6396,0,0,0,0,0,0,0,0,0,0,-3.6245,-3.6206,-3.611,-3.6112,-3.6158,-3.6311,-3.6312,-3.639,-3.6403,-3.6447,0,-3.6485,0,-3.6504,-3.6531,-3.6531,0,0,0,-3.6155,-3.6195,-3.6235,-3.6112,-3.6159,-3.6311,-3.6241,-3.6397,-3.6412,-3.6464,-3.6488,-3.6496,-3.6508,-3.6532,-3.6533,-3.6789,-3.679,0,0,-3.6146,-3.6138,-3.6225,-3.6245,-3.622,-3.6236,-3.6246,-3.6406,-3.6432,-3.6489,-3.65,-3.6511,-3.6533,-3.6535,-3.6788,-3.6789,0,0,0,-3.6123,-3.6132,-3.6168,-3.6236,-3.6264,-3.624,-3.6252,-3.6425,-3.6437,-3.6503,-3.6514,-3.6535,-3.6537,-3.6786,-3.6788,-3.6843,0,0,0,-3.6118,-3.6119,-3.6164,-3.6161,-3.6261,-3.6346,-3.6267,-3.6426,-3.6444,-3.6512,-3.6535,-3.6539,-3.6785,-3.6787,-3.6838,-3.687,0,0,0,-3.6098,-3.6116,-3.6139,-3.616,-3.6226,-3.6344,-3.6365,-3.643,-3.6451,-3.6532,-3.654,-3.6784,-3.6787,-3.6834,-3.6863,-3.6935,0,0,0,-3.6075,-3.6185,-3.614,-3.6268,-3.6225,-3.6376,-3.6364,-3.6477,-3.6553,-3.6536,-3.6785,-3.6788,-3.6833,-3.6859,-3.693,-3.6993,-3.7019,0,0,-3.621,-3.6201,-3.6277,-3.6241,-3.6398,-3.6353,-3.6519,-3.6595,-3.6611,-3.6729,-3.6735,-3.684,-3.6863,-3.6934,-3.7165,-3.7185,0,0,0,-3.6317,-3.6371,-3.6414,-3.6486,-3.6547,-3.6603,-3.6655,-3.6684,-3.6785,-3.667,-3.6885,-3.6899,-3.6941,-3.6972,-3.6989,-3.7026,-3.6802,-3.6802,-3.6801,-3.6494,-3.6508,-3.6635,-3.6668,-3.6737,-3.6791,-3.6849,-3.6897,-3.6891,-3.6942,-3.6977,-3.7115,-3.7151,-3.7164,-3.7202,-3.7011,-3.7012,-3.7012,-3.7012,-3.6692,-3.6771,-3.6761,-3.688,-3.6895,-3.6995,-3.7052,-3.7045,-3.7141,-3.709,-3.7128,-3.707,-3.7185,-3.722,-3.7016,-3.7016,-3.7015,-3.7015,-3.7014,-3.681,-3.685,-3.6884,-3.6989,-3.7069,-3.7099,-3.7193,-3.7203,-3.7213,-3.7251,-3.7289,-3.7288,-3.7289,-3.7269,-3.7269,-3.727,-3.727,-3.727,-3.7271,-3.6918,-3.6954,-3.7031,-3.7107,-3.7155,-3.7219,-3.7276,-3.7323,-3.7379,-3.7379,-3.738,-3.7369,-3.7194,-3.7149,-3.7278,-3.7277,-3.7276,-3.7275,-3.7275,-3.7113,-3.7071,-3.719,-3.7238,-3.7328,-3.7408,-3.742,-3.7517,-3.7558,-3.7604,-3.7586,-3.7455,-3.7447,-3.7434,-3.7397,-3.7582,-3.7582,-3.7582,-3.7582,-3.7212,-3.721,-3.7334,-3.741,-3.7486,-3.751,-3.7645,-3.7691,-3.7732,-3.7759,-3.7734,-3.7686,-3.7672,-3.7673,-3.7654,-3.762,-3.7858,-3.7858,-3.7858,-3.7333,-3.7338,-3.7451,-3.7489,-3.7562,-3.7624,-3.7751,-3.7841,-3.7878,-3.787,-3.778,-3.7768,-3.7692,-3.7666,-3.7654,-3.7625,-3.7563,0,0]},{"header":{"parameterUnit":"m.s-1","parameterCategory":1,"la1":30.2992,"la2":30.254,"lo1":-89.0895,"lo2":-89.0443,"dy":0.0025,"dx":0.0025,"nx":19,"ny":19,"refTime":"2026-04-04T09:00:00:Z","depth":0,"parameterNumber":3,"parameterNumberName":"V-component_of_WINDS"},"data":[0,0,0,2.9582,2.9584,2.9657,2.9657,2.9749,2.975,0,0,0,0,0,0,0,0,0,0,0,2.9561,2.9562,2.9582,2.9584,2.9657,2.9657,2.9749,2.975,0,0,0,0,0,0,0,0,0,0,0,2.9561,2.9562,2.9563,2.9585,2.9657,2.9657,2.9749,2.9694,0,0,0,0,0,0,0,0,0,0,2.9623,2.9604,2.9562,2.9563,2.9585,2.9657,2.9657,2.9691,2.9697,2.9716,0,2.9734,0,2.9743,2.9756,2.9756,0,0,0,2.9583,2.9599,2.9619,2.9563,2.9586,2.9657,2.9624,2.9694,2.9701,2.9724,2.9735,2.9738,2.9745,2.9757,2.9757,2.9873,2.9873,0,0,2.9579,2.9574,2.9614,2.9623,2.9614,2.9622,2.9626,2.9699,2.971,2.9735,2.9741,2.9746,2.9757,2.9758,2.9872,2.9873,0,0,0,2.9568,2.9571,2.9589,2.962,2.9633,2.9624,2.9629,2.9707,2.9713,2.9742,2.9748,2.9758,2.9759,2.9872,2.9872,2.9898,0,0,0,2.9566,2.9565,2.9587,2.9585,2.9632,2.9671,2.9635,2.9708,2.9716,2.9747,2.9758,2.976,2.9871,2.9872,2.9896,2.991,0,0,0,2.9556,2.9564,2.9575,2.9584,2.9616,2.967,2.968,2.971,2.972,2.9756,2.976,2.987,2.9872,2.9894,2.9907,2.994,0,0,0,2.9544,2.9594,2.9575,2.9633,2.9615,2.9686,2.968,2.9732,2.9766,2.9758,2.9871,2.9872,2.9893,2.9905,2.9938,2.9967,2.9979,0,0,2.9604,2.9601,2.9636,2.9621,2.9694,2.9675,2.9751,2.9786,2.9792,2.9845,2.9848,2.9896,2.9907,2.994,3.0046,3.0055,0,0,0,2.9653,2.9678,2.9699,2.9732,2.9762,2.9789,2.9813,2.9826,2.9872,2.9819,2.9917,2.9924,2.9943,2.9957,2.9965,2.9983,2.9879,2.9879,2.9878,2.9729,2.9738,2.9797,2.9815,2.9848,2.9875,2.9902,2.9924,2.992,2.9944,2.9959,3.0023,3.004,3.0046,3.0064,2.9975,2.9976,2.9976,2.9976,2.9818,2.9855,2.9854,2.991,2.992,2.9966,2.9994,2.9991,3.0035,3.0012,3.0029,3.0002,3.0056,3.0072,2.9978,2.9977,2.9977,2.9977,2.9977,2.9869,2.9889,2.9906,2.9958,2.9997,3.0013,3.0057,3.0063,3.0068,3.0086,3.0104,3.0103,3.0104,3.0094,3.0094,3.0095,3.0095,3.0095,3.0095,2.9915,2.9934,2.9972,3.001,3.0034,3.0066,3.0095,3.0118,3.0145,3.0145,3.0145,3.0141,3.006,3.0039,3.0099,3.0098,3.0098,3.0097,3.0097,3.0002,2.9984,3.0042,3.0066,3.0113,3.0152,3.016,3.0207,3.0227,3.0249,3.0241,3.018,3.0176,3.017,3.0153,3.0239,3.0239,3.0239,3.0239,3.0045,3.0045,3.0107,3.0146,3.0184,3.0199,3.0264,3.0287,3.0308,3.0321,3.031,3.0288,3.0281,3.0282,3.0273,3.0257,3.0367,3.0367,3.0367,3.01,3.0104,3.0159,3.0182,3.0219,3.0251,3.0313,3.0357,3.0376,3.0373,3.0331,3.0326,3.0291,3.0279,3.0273,3.026,3.0231,0,0]}]]